[[{"header":{"parameterUnit":"m.s-1","parameterCategory":2,"la1":30.2991,"la2":30.254,"lo1":-89.0895,"lo2":-89.0444,"dy":0.0017,"dx":0.0017,"nx":28,"ny":28,"refTime":"2025-08-21T03:00:00:Z","depth":"0","parameterNumber":2,"parameterNumberName":"U-component_of_CURRENTS"},"data":[0,0,0,0,0,0,0,0,0,0,0,0,0,0,0,0,0,0,0,0,0,0,0,0,0,0,0,0,0,0,0,0,0,0,0,0,0,0,0,0,0,0,0,0,0,0,0,0,0,0,0,0,0,0,0,0,0,0,-0.2108,-0.2109,0,-0.2147,-0.2148,-0.2148,-0.2133,-0.2132,-0.2131,-0.213,-0.2266,-0.227,-0.2275,0,0,0,0,0,0,0,0,0,0,0,0,0,-0.2013,-0.2015,-0.2108,-0.2109,-0.2109,-0.2147,-0.2148,-0.2148,-0.2133,-0.2132,-0.2131,-0.213,-0.2265,-0.227,-0.2275,0,0,0,0,0,0,0,0,0,0,0,0,0,-0.2052,-0.2015,-0.2108,-0.2108,-0.2108,-0.2147,-0.2148,-0.2148,-0.2133,-0.2132,-0.2131,-0.213,-0.2263,-0.2269,-0.2276,-0.2338,0,0,-0.2295,-0.2298,0,0,0,0,0,0,0,0,-0.205,-0.2055,-0.2107,-0.2108,-0.2108,-0.2136,-0.2164,-0.2217,-0.2133,-0.2121,-0.213,-0.2129,-0.2234,-0.2242,-0.2248,-0.2344,-0.235,-0.2296,-0.23,-0.2303,-0.2304,0,0,0,0,0,0,0,-0.2047,-0.2053,-0.2121,-0.2108,-0.2109,-0.2104,-0.2108,-0.2173,-0.2183,-0.2122,-0.2122,-0.213,-0.2234,-0.2242,-0.2251,-0.2352,-0.2296,-0.2302,-0.2306,-0.2308,-0.2411,-0.241,0,0,0,0,0,0,-0.2048,-0.2051,-0.212,-0.2123,-0.2078,-0.2106,-0.2111,-0.2126,-0.2181,-0.2188,-0.2131,-0.2129,-0.2231,-0.2244,-0.2256,-0.229,-0.2303,-0.2309,-0.2312,-0.2412,-0.2411,-0.241,0,0,0,0,0,0,-0.2046,-0.2054,-0.2119,-0.2089,-0.2097,-0.211,-0.2127,-0.2128,-0.2133,-0.2186,-0.2194,-0.2134,-0.2231,-0.2247,-0.2288,-0.2297,-0.2312,-0.2317,-0.2414,-0.2412,-0.241,-0.2387,0,0,0,0,0,0,-0.2043,-0.2053,-0.2062,-0.2089,-0.2099,-0.214,-0.2128,-0.2129,-0.2141,-0.2138,-0.2193,-0.2204,-0.2231,-0.2278,-0.2295,-0.2307,-0.2322,-0.2415,-0.2413,-0.2411,-0.2389,-0.2385,-0.2381,0,0,0,0,0,-0.204,-0.2058,-0.2062,-0.207,-0.2111,-0.2141,-0.2145,-0.2148,-0.2142,-0.2148,-0.2165,-0.2202,-0.2275,-0.2283,-0.2303,-0.2317,-0.2416,-0.2414,-0.2411,-0.2391,-0.2386,-0.2381,0,0,0,0,0,0,-0.2021,-0.206,-0.2064,-0.2093,-0.2114,-0.2139,-0.2146,-0.2152,-0.217,-0.2168,-0.2207,-0.2219,-0.2252,-0.2284,-0.2291,-0.2332,-0.2346,-0.2348,-0.2324,-0.232,-0.2316,-0.2326,-0.2328,0,0,0,0,0,-0.2023,-0.2043,-0.2078,-0.2097,-0.211,-0.2129,-0.214,-0.2147,-0.2168,-0.2174,-0.2206,-0.2233,-0.2259,-0.2287,-0.2316,-0.2364,-0.2372,-0.2375,-0.2371,-0.2367,-0.2384,-0.2378,-0.2375,-0.2402,-0.2402,-0.2402,0,0,-0.2018,-0.2043,-0.2053,-0.2094,-0.2108,-0.2136,-0.2132,-0.2153,-0.217,-0.2192,-0.2219,-0.2229,-0.2264,-0.2291,-0.231,-0.2323,-0.2359,-0.2364,-0.2361,-0.2381,-0.2375,-0.2373,-0.2371,-0.24,-0.24,-0.24,0,0,-0.2022,-0.2044,-0.2063,-0.2088,-0.212,-0.2136,-0.2144,-0.2172,-0.2176,-0.2208,-0.2207,-0.2217,-0.2278,-0.2288,-0.2305,-0.2303,-0.2331,-0.2306,-0.2314,-0.2306,-0.2305,-0.2304,-0.2294,-0.2292,-0.2312,-0.2312,-0.2312,0,-0.2014,-0.2047,-0.2071,-0.2101,-0.2121,-0.2139,-0.2164,-0.2181,-0.2212,-0.222,-0.2213,-0.225,-0.2276,-0.2303,-0.2286,-0.2299,-0.2294,-0.2335,-0.2303,-0.2302,-0.2302,-0.2292,-0.229,-0.2311,-0.2311,-0.2311,-0.2311,0,-0.2036,-0.2064,-0.2078,-0.2121,-0.2146,-0.2169,-0.2202,-0.2218,-0.2224,-0.2236,-0.2252,-0.2264,-0.2284,-0.2283,-0.2293,-0.2297,-0.2293,-0.2293,-0.2321,-0.2298,-0.2288,-0.2287,-0.2308,-0.2309,-0.2309,-0.231,0,0,-0.2007,-0.2078,-0.2081,-0.2103,-0.2157,-0.2178,-0.2213,-0.2245,-0.226,-0.2273,-0.2286,-0.2301,-0.2292,-0.2308,-0.2308,-0.2304,-0.2281,-0.2297,-0.2297,-0.2297,-0.2259,-0.2191,-0.2183,-0.2272,-0.2272,-0.2272,-0.2248,0,-0.201,-0.2063,-0.2101,-0.2141,-0.2169,-0.2205,-0.2236,-0.2267,-0.2284,-0.2302,-0.2304,-0.2316,-0.2307,-0.2306,-0.23,-0.2291,-0.2279,-0.2288,-0.2274,-0.2274,-0.2225,-0.218,-0.2085,-0.205,-0.2247,-0.2247,-0.2247,0,-0.2013,-0.205,-0.2092,-0.2152,-0.2167,-0.2193,-0.2238,-0.2269,-0.2306,-0.2318,-0.2329,-0.2332,-0.2336,-0.232,-0.2303,-0.2306,-0.2283,-0.2269,-0.2268,-0.222,-0.2204,-0.2107,-0.2041,-0.203,-0.2245,-0.2245,-0.2245,0,-0.1969,-0.2039,-0.2067,-0.209,-0.2164,-0.2182,-0.2215,-0.2263,-0.2286,-0.2322,-0.2333,-0.2343,-0.2339,-0.2321,-0.2294,-0.2297,-0.2265,-0.2267,-0.2184,-0.2179,-0.2105,-0.2093,-0.2038,-0.2245,-0.2245,-0.2245,-0.2246,0,-0.1955,-0.1974,-0.2047,-0.2063,-0.209,-0.2155,-0.2182,-0.2219,-0.227,-0.2288,-0.2328,-0.2334,-0.2337,-0.2321,-0.2297,-0.223,-0.2264,-0.218,-0.2165,-0.209,-0.2077,-0.2072,-0.2099,-0.2245,-0.2245,-0.2245,-0.2245,0,-0.1892,-0.1947,-0.1978,-0.205,-0.2069,-0.2083,-0.2152,-0.2171,-0.2234,-0.2258,-0.2268,-0.2319,-0.2297,-0.2288,-0.2258,-0.222,-0.2134,-0.2142,-0.2051,-0.2024,-0.1928,-0.1957,-0.1911,-0.1854,-0.2047,-0.2045,-0.2044,0,-0.1862,-0.1873,-0.1941,-0.1952,-0.1978,-0.2017,-0.204,-0.2127,-0.2155,-0.2237,-0.2238,-0.2251,-0.2224,-0.2167,-0.2108,-0.2042,-0.2054,-0.1928,-0.1915,-0.1901,-0.1923,-0.1951,-0.1908,-0.1805,-0.1801,-0.1799,-0.1796,0,-0.1786,-0.1809,-0.1833,-0.186,-0.1883,-0.1915,-0.1962,-0.1982,-0.2079,-0.2106,-0.2127,-0.2116,-0.2081,-0.1978,-0.1913,-0.1863,-0.1879,-0.1867,-0.1876,-0.1744,-0.1749,-0.1693,-0.1854,-0.1772,-0.1774,-0.1776,-0.1777,-0.1778,-0.1707,-0.1701,-0.1731,-0.1742,-0.1771,-0.1782,-0.1768,-0.1833,-0.1853,-0.1871,-0.1955,-0.1916,-0.189,-0.1775,-0.1723,-0.1624,-0.1684,-0.1585,-0.1626,-0.166,-0.1584,-0.1685,-0.1572,-0.1574,-0.1575,-0.1576,-0.1577,0,-0.1594,-0.16,-0.1609,-0.162,-0.1598,-0.1656,-0.1683,-0.1648,-0.1622,-0.1687,-0.1682,-0.1679,-0.1583,-0.1572,-0.1493,-0.1419,-0.1383,-0.1395,-0.142,-0.1389,-0.1485,-0.1452,-0.1279,-0.1279,-0.1279,-0.1279,-0.1279,-0.1279,-0.1536,-0.1499,-0.1506,-0.1432,-0.1435,-0.1365,-0.1348,-0.132,-0.1337,-0.1305,-0.1339,-0.1362,-0.14,-0.1545,-0.1442,-0.1357,-0.1332,-0.1282,-0.1317,-0.1405,-0.1427,-0.1448,-0.1421,-0.1245,-0.1245,-0.1155,-0.1154,-0.1154]},{"header":{"parameterUnit":"m.s-1","parameterCategory":2,"la1":30.2991,"la2":30.254,"lo1":-89.0895,"lo2":-89.0444,"dy":0.0017,"dx":0.0017,"nx":28,"ny":28,"refTime":"2025-08-21T03:00:00:Z","depth":"0","parameterNumber":3,"parameterNumberName":"V-component_of_CURRENTS"},"data":[0,0,0,0,0,0,0,0,0,0,0,0,0,0,0,0,0,0,0,0,0,0,0,0,0,0,0,0,0,0,0,0,0,0,0,0,0,0,0,0,0,0,0,0,0,0,0,0,0,0,0,0,0,0,0,0,0,0,-0.0169,-0.0169,0,-0.0097,-0.0096,-0.0095,-0.0032,-0.0031,-0.003,-0.003,0.0195,0.02,0.0206,0,0,0,0,0,0,0,0,0,0,0,0,0,-0.0212,-0.0212,-0.0169,-0.0169,-0.0168,-0.0097,-0.0096,-0.0095,-0.0032,-0.0031,-0.003,-0.003,0.0193,0.02,0.0206,0,0,0,0,0,0,0,0,0,0,0,0,0,-0.0171,-0.0212,-0.017,-0.0129,-0.0124,-0.0097,-0.0096,-0.0094,-0.0032,-0.0031,-0.003,-0.0029,0.0191,0.0199,0.0207,0.0238,0,0,0.0232,0.0235,0,0,0,0,0,0,0,0,-0.0173,-0.0169,-0.0135,-0.0131,-0.0127,-0.0073,-0.0028,0.0024,-0.0032,-0.0066,-0.003,-0.0029,0.0118,0.0132,0.0143,0.0249,0.0259,0.0233,0.0238,0.0241,0.0243,0,0,0,0,0,0,0,-0.0176,-0.0172,-0.014,-0.0135,-0.0129,-0.0099,-0.0093,-0.0018,0.0024,-0.0063,-0.0059,-0.0052,0.0122,0.0135,0.0149,0.0262,0.0232,0.024,0.0245,0.0248,0.0359,0.0357,0,0,0,0,0,0,-0.0191,-0.0175,-0.0142,-0.0138,-0.0149,-0.01,-0.0092,-0.009,0.002,0.0036,-0.0053,-0.005,0.0121,0.014,0.0158,0.0191,0.0241,0.0249,0.0253,0.036,0.0358,0.0356,0,0,0,0,0,0,-0.0192,-0.0189,-0.0145,-0.0155,-0.0147,-0.01,-0.0098,-0.009,-0.0073,0.0025,0.0045,-0.0046,0.0122,0.0146,0.0198,0.0201,0.0252,0.026,0.0363,0.036,0.0357,0.0264,0,0,0,0,0,0,-0.0194,-0.019,-0.0194,-0.0156,-0.0147,-0.0134,-0.0099,-0.0089,-0.0072,-0.0066,0.0038,0.0059,0.0125,0.0185,0.0206,0.0213,0.0266,0.0365,0.0361,0.0358,0.027,0.0259,0.0249,0,0,0,0,0,-0.0195,-0.0208,-0.0195,-0.0191,-0.0155,-0.0135,-0.0128,-0.009,-0.0072,-0.0071,-0.0019,0.0056,0.0177,0.019,0.0215,0.0225,0.0367,0.0362,0.0358,0.0274,0.0261,0.0249,0,0,0,0,0,0,-0.0229,-0.0202,-0.0187,-0.019,-0.0167,-0.0125,-0.0121,-0.0097,-0.0057,-0.0049,0.0041,0.0065,0.0107,0.0167,0.0178,0.0237,0.0281,0.0282,0.0209,0.0197,0.0187,0.0184,0.0273,0,0,0,0,0,-0.024,-0.0242,-0.0209,-0.0212,-0.0204,-0.0165,-0.0152,-0.0128,-0.0088,-0.007,-0.0003,0.0059,0.0107,0.0151,0.0202,0.0249,0.03,0.0264,0.0254,0.0245,0.0254,0.03,0.0296,0.0342,0.0342,0.0342,0,0,-0.0254,-0.024,-0.024,-0.022,-0.0198,-0.0195,-0.0154,-0.0142,-0.0135,-0.0048,-0.0019,0.0029,0.0105,0.0141,0.0167,0.0198,0.0254,0.0239,0.0232,0.0247,0.0295,0.0291,0.0288,0.0339,0.0339,0.034,0,0,-0.0288,-0.0271,-0.0285,-0.027,-0.0246,-0.0221,-0.0221,-0.0184,-0.0161,-0.0132,-0.0083,-0.0043,0.0045,0.0092,0.0129,0.0094,0.0188,0.0108,0.0078,0.0121,0.0119,0.0117,0.0164,0.0168,0.0116,0.0116,0.0115,0,-0.0307,-0.0319,-0.0286,-0.0294,-0.0288,-0.0238,-0.0251,-0.0222,-0.0174,-0.0157,-0.0134,-0.0043,0.0023,0.0068,0.0049,0.0077,0.0114,0.0125,0.011,0.011,0.011,0.0159,0.0164,0.0111,0.0111,0.0112,0.0112,0,-0.0349,-0.0357,-0.0365,-0.0358,-0.0346,-0.0349,-0.0308,-0.0291,-0.0258,-0.0224,-0.0182,-0.0112,-0.0053,-0.0036,0.0006,0.0032,0.0061,0.0083,0.0148,0.01,0.0154,0.0161,0.0103,0.0105,0.0107,0.0108,0,0,-0.0394,-0.0397,-0.0398,-0.041,-0.0382,-0.0379,-0.0365,-0.0338,-0.0328,-0.0274,-0.0254,-0.0185,-0.0144,-0.0102,-0.0049,-0.0006,0.0021,0.0036,0.0041,0.0093,0.0119,0.0166,0.018,0.004,0.0041,0.0042,0.0152,0,-0.0439,-0.0479,-0.0459,-0.0488,-0.0505,-0.0457,-0.0449,-0.0414,-0.037,-0.0336,-0.0259,-0.0218,-0.0169,-0.0142,-0.0095,-0.0007,0.0036,-0.0011,0.0149,0.0154,0.0211,0.0188,0.0233,0.0338,0.016,0.0161,0.0162,0,-0.0487,-0.0508,-0.0551,-0.0559,-0.0561,-0.0563,-0.0538,-0.0524,-0.0456,-0.0419,-0.0359,-0.0293,-0.0215,-0.0177,-0.0035,-0.0068,0.0015,0.0084,0.009,0.0179,0.0216,0.0358,0.0358,0.051,0.0174,0.0173,0.0172,0,-0.0543,-0.057,-0.0609,-0.0612,-0.061,-0.0614,-0.0603,-0.0551,-0.0537,-0.0467,-0.044,-0.0342,-0.0281,-0.0173,-0.0019,-0.0029,0.0139,0.0146,0.0268,0.0273,0.0367,0.0379,0.0547,0.0237,0.0237,0.0237,0.0236,0,-0.0601,-0.063,-0.064,-0.0663,-0.0701,-0.0672,-0.0688,-0.0657,-0.0608,-0.0586,-0.0488,-0.0434,-0.0278,-0.0156,-0.0032,0.0152,0.0135,0.027,0.0307,0.0333,0.034,0.0522,0.0577,0.0241,0.024,0.0239,0.0238,0,-0.0656,-0.0662,-0.0711,-0.0726,-0.0732,-0.0757,-0.075,-0.0752,-0.0695,-0.066,-0.0638,-0.0496,-0.0328,-0.016,0.0035,0.0146,0.041,0.0373,0.0397,0.0435,0.0673,0.072,0.0929,0.1022,0.0519,0.0521,0.0522,0,-0.0689,-0.072,-0.0765,-0.0795,-0.0805,-0.0831,-0.0843,-0.0803,-0.0794,-0.0686,-0.0668,-0.05,-0.036,-0.005,0.0173,0.0406,0.0513,0.0574,0.0561,0.0705,0.0784,0.0813,0.0877,0.0647,0.065,0.0652,0.0654,0,-0.0749,-0.0762,-0.08,-0.0866,-0.0896,-0.0927,-0.0934,-0.094,-0.0874,-0.0809,-0.0685,-0.0561,-0.025,0.0048,0.0347,0.0489,0.0696,0.0622,0.0773,0.0904,0.0948,0.1048,0.0556,0.0672,0.067,0.0668,0.0667,0.0667,-0.0783,-0.0826,-0.0873,-0.093,-0.0969,-0.1,-0.101,-0.0986,-0.0943,-0.0813,-0.0701,-0.0454,-0.0052,0.0387,0.0547,0.0908,0.0862,0.1014,0.106,0.1078,0.1167,0.0713,0.0865,0.0864,0.0863,0.0863,0.0862,0,-0.082,-0.0865,-0.0931,-0.0992,-0.1035,-0.1038,-0.1048,-0.101,-0.0936,-0.0778,-0.0616,-0.0121,0.0284,0.0658,0.1135,0.1334,0.1374,0.1434,0.1495,0.154,0.1153,0.1159,0.1379,0.1379,0.1379,0.1379,0.1379,0.1378,-0.0839,-0.0907,-0.0942,-0.1023,-0.106,-0.1077,-0.1072,-0.0982,-0.0854,-0.0532,-0.0229,-0.0001,0.0536,0.1257,0.17,0.1742,0.1916,0.1903,0.1989,0.1727,0.1691,0.1656,0.1677,0.2003,0.2003,0.2373,0.2376,0.2379]}],[{"header":{"parameterUnit":"m.s-1","parameterCategory":2,"la1":30.2991,"la2":30.254,"lo1":-89.0895,"lo2":-89.0444,"dy":0.0017,"dx":0.0017,"nx":28,"ny":28,"refTime":"2025-08-21T03:00:00:Z","depth":"2","parameterNumber":2,"parameterNumberName":"U-component_of_CURRENTS"},"data":[0,0,0,0,0,0,0,0,0,0,0,0,0,0,0,0,0,0,0,0,0,0,0,0,0,0,0,0,0,0,0,0,0,0,0,0,0,0,0,0,0,0,0,0,0,0,0,0,0,0,0,0,0,0,0,0,0,0,-0.2005,-0.2006,0,-0.2047,-0.2047,-0.2047,-0.2038,-0.2038,-0.2037,-0.2036,-0.2053,-0.2054,-0.2055,0,0,0,0,0,0,0,0,0,0,0,0,0,-0.1916,-0.1917,-0.2005,-0.2006,-0.2006,-0.2047,-0.2047,-0.2047,-0.2038,-0.2038,-0.2037,-0.2036,-0.2053,-0.2054,-0.2055,0,0,0,0,0,0,0,0,0,0,0,0,0,-0.1954,-0.1918,-0.2005,-0.2008,-0.2009,-0.2047,-0.2047,-0.2048,-0.2038,-0.2038,-0.2037,-0.2036,-0.2053,-0.2054,-0.2056,-0.2083,0,0,-0.206,-0.2061,0,0,0,0,0,0,0,0,-0.1952,-0.1957,-0.2007,-0.2008,-0.2009,-0.2038,-0.2022,-0.2059,-0.2039,-0.2025,-0.2036,-0.2035,-0.2048,-0.205,-0.2057,-0.2084,-0.2085,-0.206,-0.2061,-0.2062,-0.2062,0,0,0,0,0,0,0,-0.1949,-0.1955,-0.2019,-0.2008,-0.2009,-0.2007,-0.2011,-0.2029,-0.2039,-0.2026,-0.2026,-0.2034,-0.2048,-0.2056,-0.2058,-0.2085,-0.206,-0.2062,-0.2063,-0.2063,-0.2128,-0.2129,0,0,0,0,0,0,-0.1949,-0.1953,-0.2018,-0.2021,-0.198,-0.201,-0.2014,-0.2028,-0.204,-0.2041,-0.2035,-0.2034,-0.2054,-0.2056,-0.2058,-0.2083,-0.2062,-0.2063,-0.2064,-0.2128,-0.2129,-0.2129,0,0,0,0,0,0,-0.1947,-0.1955,-0.2017,-0.1989,-0.1997,-0.2012,-0.2028,-0.2029,-0.2038,-0.2047,-0.2047,-0.2042,-0.2053,-0.2056,-0.2076,-0.2083,-0.2064,-0.2066,-0.2127,-0.2128,-0.2129,-0.2137,0,0,0,0,0,0,-0.1945,-0.1954,-0.1962,-0.1989,-0.1998,-0.204,-0.2029,-0.2031,-0.2045,-0.2043,-0.2053,-0.2053,-0.2053,-0.2073,-0.2077,-0.2085,-0.2067,-0.2126,-0.2127,-0.2129,-0.2136,-0.2138,-0.2141,0,0,0,0,0,-0.1941,-0.1958,-0.1963,-0.197,-0.201,-0.204,-0.2045,-0.2051,-0.2046,-0.2054,-0.206,-0.2053,-0.2085,-0.2076,-0.208,-0.2088,-0.2125,-0.2127,-0.2129,-0.2135,-0.2138,-0.2141,0,0,0,0,0,0,-0.1924,-0.196,-0.1965,-0.1992,-0.2014,-0.2039,-0.2048,-0.2056,-0.2068,-0.2065,-0.2067,-0.2069,-0.2088,-0.2093,-0.2082,-0.2112,-0.2103,-0.2106,-0.2106,-0.2109,-0.2112,-0.2111,-0.2068,0,0,0,0,0,-0.1925,-0.1944,-0.1978,-0.1996,-0.201,-0.203,-0.2042,-0.2051,-0.2067,-0.2071,-0.2078,-0.2088,-0.2101,-0.2108,-0.2119,-0.2141,-0.2134,-0.2149,-0.2152,-0.2154,-0.2157,-0.2151,-0.2152,-0.2135,-0.2135,-0.2135,0,0,-0.1921,-0.1945,-0.1954,-0.1993,-0.2009,-0.2037,-0.2034,-0.2058,-0.2077,-0.2073,-0.2094,-0.2098,-0.2109,-0.2128,-0.2137,-0.2132,-0.2155,-0.2156,-0.2157,-0.2159,-0.2153,-0.2154,-0.2155,-0.2137,-0.2136,-0.2136,0,0,-0.1926,-0.1946,-0.1965,-0.199,-0.2022,-0.2039,-0.2048,-0.2078,-0.2085,-0.2113,-0.211,-0.212,-0.2145,-0.2149,-0.2156,-0.2184,-0.2168,-0.2187,-0.2198,-0.2193,-0.2193,-0.2194,-0.2183,-0.2183,-0.2188,-0.2188,-0.2188,0,-0.1919,-0.195,-0.1973,-0.2003,-0.2023,-0.2043,-0.2068,-0.2088,-0.2117,-0.2126,-0.212,-0.215,-0.2155,-0.2177,-0.2182,-0.2188,-0.2179,-0.2183,-0.2194,-0.2195,-0.2195,-0.2184,-0.2183,-0.2188,-0.2188,-0.2188,-0.2188,0,-0.1941,-0.1968,-0.1982,-0.2024,-0.205,-0.2074,-0.2108,-0.2127,-0.2138,-0.2152,-0.2173,-0.2179,-0.2193,-0.2197,-0.2199,-0.221,-0.22,-0.2195,-0.2182,-0.2197,-0.2184,-0.2184,-0.2189,-0.2189,-0.2189,-0.2189,0,0,-0.1914,-0.1983,-0.1986,-0.2008,-0.2062,-0.2084,-0.2122,-0.2156,-0.2175,-0.2192,-0.221,-0.2227,-0.2222,-0.223,-0.2228,-0.2225,-0.2218,-0.2212,-0.2211,-0.2193,-0.2199,-0.2131,-0.2123,-0.2211,-0.2211,-0.2211,-0.2186,0,-0.1918,-0.197,-0.2006,-0.2049,-0.2077,-0.2114,-0.2147,-0.2181,-0.2202,-0.2224,-0.2229,-0.2245,-0.2238,-0.2239,-0.2236,-0.2227,-0.2217,-0.2225,-0.2194,-0.2193,-0.2124,-0.2121,-0.1966,-0.1925,-0.2185,-0.2185,-0.2185,0,-0.1922,-0.1958,-0.2002,-0.2063,-0.2078,-0.2106,-0.2154,-0.2188,-0.2228,-0.2243,-0.2258,-0.2263,-0.2271,-0.2256,-0.2243,-0.2246,-0.2223,-0.221,-0.2208,-0.2142,-0.2124,-0.1954,-0.1914,-0.2184,-0.2184,-0.2184,-0.2184,0,-0.1882,-0.1951,-0.1982,-0.2005,-0.2079,-0.2099,-0.2134,-0.2185,-0.2209,-0.2249,-0.2263,-0.2277,-0.2276,-0.226,-0.2235,-0.2238,-0.2209,-0.221,-0.2127,-0.2122,-0.1983,-0.1965,-0.219,-0.219,-0.219,-0.219,-0.2191,0,-0.1869,-0.1891,-0.1964,-0.1981,-0.2012,-0.2076,-0.2107,-0.2146,-0.2198,-0.2218,-0.226,-0.2268,-0.2275,-0.2261,-0.2238,-0.2174,-0.2208,-0.2124,-0.2108,-0.1981,-0.1964,-0.2186,-0.2186,-0.2189,-0.219,-0.219,-0.219,0,-0.1813,-0.1867,-0.19,-0.1973,-0.1993,-0.2011,-0.2082,-0.2103,-0.2167,-0.2193,-0.2204,-0.2254,-0.2236,-0.2229,-0.2201,-0.2164,-0.2121,-0.2087,-0.1935,-0.1902,-0.204,-0.2041,-0.1997,-0.1994,-0.1992,-0.199,-0.1989,0,-0.1786,-0.18,-0.1869,-0.1882,-0.191,-0.1952,-0.1977,-0.2063,-0.209,-0.2173,-0.2173,-0.2189,-0.216,-0.2106,-0.2045,-0.198,-0.205,-0.1812,-0.179,-0.2029,-0.2019,-0.2024,-0.2027,-0.161,-0.1606,-0.1602,-0.1599,0,-0.1719,-0.1744,-0.1769,-0.1798,-0.1824,-0.1858,-0.1905,-0.1924,-0.2018,-0.2044,-0.2061,-0.2048,-0.2012,-0.1875,-0.181,-0.1757,-0.1813,-0.1734,-0.201,-0.1687,-0.1663,-0.1654,-0.167,-0.1566,-0.1569,-0.1571,-0.1573,-0.1575,-0.1649,-0.1646,-0.1677,-0.169,-0.1721,-0.1733,-0.1718,-0.1779,-0.1795,-0.1805,-0.1885,-0.1818,-0.1808,-0.1619,-0.1533,-0.1471,-0.1596,-0.1532,-0.1544,-0.156,-0.1523,-0.1497,-0.1361,-0.1363,-0.1365,-0.1367,-0.1368,0,-0.1549,-0.1555,-0.1566,-0.1578,-0.1558,-0.1616,-0.1639,-0.1598,-0.1564,-0.1607,-0.1594,-0.1438,-0.1348,-0.1343,-0.1191,-0.1162,-0.1152,-0.1118,-0.1109,-0.1143,-0.1172,-0.1117,-0.0846,-0.0845,-0.0843,-0.0842,0,0,-0.1498,-0.1466,-0.1469,-0.14,-0.1404,-0.1335,-0.1315,-0.1274,-0.1267,-0.1206,-0.1182,-0.1283,-0.1305,-0.1084,-0.1026,-0.091,-0.1015,-0.0861,-0.1279,-0.1302,-0.133,-0.1409,-0.1361,0,0,0,0,0]},{"header":{"parameterUnit":"m.s-1","parameterCategory":2,"la1":30.2991,"la2":30.254,"lo1":-89.0895,"lo2":-89.0444,"dy":0.0017,"dx":0.0017,"nx":28,"ny":28,"refTime":"2025-08-21T03:00:00:Z","depth":"2","parameterNumber":3,"parameterNumberName":"V-component_of_CURRENTS"},"data":[0,0,0,0,0,0,0,0,0,0,0,0,0,0,0,0,0,0,0,0,0,0,0,0,0,0,0,0,0,0,0,0,0,0,0,0,0,0,0,0,0,0,0,0,0,0,0,0,0,0,0,0,0,0,0,0,0,0,-0.0143,-0.0142,0,-0.0076,-0.0075,-0.0074,-0.0017,-0.0016,-0.0016,-0.0015,0.0085,0.0087,0.0089,0,0,0,0,0,0,0,0,0,0,0,0,0,-0.0178,-0.0178,-0.0143,-0.0142,-0.0141,-0.0076,-0.0075,-0.0074,-0.0017,-0.0016,-0.0016,-0.0015,0.0085,0.0087,0.009,0,0,0,0,0,0,0,0,0,0,0,0,0,-0.0142,-0.0178,-0.0143,-0.0105,-0.0102,-0.0076,-0.0075,-0.0074,-0.0017,-0.0016,-0.0015,-0.0015,0.0084,0.0087,0.009,0.0092,0,0,0.01,0.0101,0,0,0,0,0,0,0,0,-0.0144,-0.0141,-0.0112,-0.0108,-0.0104,-0.0055,-0.0051,-0.0017,-0.0017,-0.0048,-0.0015,-0.0014,0.004,0.0047,0.0059,0.0097,0.0101,0.01,0.0102,0.0103,0.0104,0,0,0,0,0,0,0,-0.0147,-0.0143,-0.0116,-0.0111,-0.0106,-0.0077,-0.0072,-0.0044,-0.0008,-0.0046,-0.0041,-0.0035,0.0043,0.0055,0.0061,0.0103,0.01,0.0103,0.0105,0.0106,0.0178,0.0178,0,0,0,0,0,0,-0.016,-0.0146,-0.0118,-0.0114,-0.0123,-0.0078,-0.0071,-0.0071,-0.0009,0.0,-0.0036,-0.0033,0.0049,0.0058,0.0065,0.0083,0.0103,0.0106,0.0108,0.0178,0.0178,0.0178,0,0,0,0,0,0,-0.0161,-0.0158,-0.012,-0.0128,-0.0122,-0.0079,-0.0078,-0.007,-0.0055,-0.0003,0.0008,-0.003,0.005,0.0061,0.0093,0.0087,0.0108,0.0111,0.0178,0.0178,0.0178,0.0113,0,0,0,0,0,0,-0.0162,-0.0159,-0.0164,-0.013,-0.0122,-0.0111,-0.0079,-0.0069,-0.0053,-0.0048,0.0006,0.0017,0.0052,0.0088,0.0096,0.0092,0.0113,0.0178,0.0178,0.0178,0.0115,0.011,0.0107,0,0,0,0,0,-0.0164,-0.0177,-0.0165,-0.0161,-0.013,-0.0111,-0.0105,-0.007,-0.0054,-0.0053,-0.0011,0.0015,0.0094,0.009,0.01,0.0097,0.0178,0.0178,0.0178,0.0117,0.0111,0.0107,0,0,0,0,0,0,-0.0195,-0.0171,-0.0157,-0.0162,-0.0141,-0.0102,-0.0099,-0.0076,-0.0044,-0.0038,0.0014,0.0026,0.0051,0.0084,0.0078,0.0119,0.0141,0.0142,0.0091,0.0086,0.0082,0.0072,0.0116,0,0,0,0,0,-0.0206,-0.0208,-0.0179,-0.0183,-0.0175,-0.0138,-0.0127,-0.0105,-0.0072,-0.0057,-0.0019,0.0023,0.0057,0.0079,0.011,0.0132,0.0168,0.0138,0.0134,0.013,0.0129,0.0177,0.0177,0.0178,0.0178,0.0178,0,0,-0.0219,-0.0206,-0.0207,-0.0189,-0.0169,-0.0166,-0.0129,-0.0117,-0.011,-0.0052,-0.0031,0.0006,0.0058,0.0082,0.0097,0.0111,0.0149,0.013,0.0126,0.0128,0.0177,0.0177,0.0176,0.0178,0.0178,0.0178,0,0,-0.025,-0.0236,-0.0249,-0.0235,-0.0213,-0.019,-0.019,-0.0155,-0.0134,-0.0111,-0.0067,-0.0032,0.0016,0.0056,0.0082,0.0075,0.0121,0.0083,0.006,0.0105,0.0106,0.0106,0.0149,0.0154,0.0087,0.0086,0.0086,0,-0.0268,-0.0279,-0.025,-0.0257,-0.025,-0.0205,-0.0215,-0.0189,-0.0147,-0.013,-0.0113,-0.0035,0.0005,0.0046,0.0045,0.0065,0.0097,0.0071,0.0099,0.0101,0.0102,0.0146,0.0153,0.0083,0.0084,0.0084,0.0084,0,-0.0305,-0.0313,-0.0319,-0.0313,-0.0301,-0.0303,-0.0265,-0.0249,-0.0218,-0.0186,-0.0145,-0.0086,-0.0036,-0.002,0.0011,0.0043,0.0064,0.0082,0.0108,0.0098,0.0145,0.0153,0.0079,0.008,0.0081,0.0082,0,0,-0.0348,-0.0348,-0.035,-0.0358,-0.0332,-0.0328,-0.0313,-0.0286,-0.0273,-0.0225,-0.0201,-0.014,-0.0102,-0.007,-0.0023,0.0019,0.0058,0.0051,0.0055,0.0086,0.0157,0.0188,0.0199,0.0079,0.008,0.0081,0.0183,0,-0.0387,-0.042,-0.0402,-0.0426,-0.0439,-0.0394,-0.0385,-0.035,-0.0308,-0.0273,-0.0202,-0.0163,-0.0122,-0.0098,-0.005,0.0031,0.0076,0.0028,0.0169,0.0173,0.0195,0.0209,0.0185,0.0276,0.0191,0.0192,0.0193,0,-0.0429,-0.0446,-0.0482,-0.0485,-0.0485,-0.0487,-0.0459,-0.0444,-0.0377,-0.0343,-0.0284,-0.0224,-0.015,-0.0117,0.0018,-0.0016,0.0063,0.0126,0.0132,0.0189,0.0218,0.0275,0.0294,0.0207,0.0206,0.0205,0.0204,0,-0.0478,-0.05,-0.0532,-0.0533,-0.0528,-0.0529,-0.0518,-0.0466,-0.0451,-0.0382,-0.0357,-0.0261,-0.0208,-0.0102,0.0035,0.0027,0.0185,0.0193,0.0296,0.0299,0.0323,0.0326,0.0286,0.0286,0.0286,0.0286,0.0285,0,-0.0528,-0.0552,-0.056,-0.0579,-0.061,-0.0581,-0.0592,-0.0562,-0.0513,-0.0493,-0.0398,-0.0349,-0.0203,-0.009,0.0027,0.0191,0.0185,0.0298,0.0331,0.03,0.03,0.0274,0.0271,0.029,0.0289,0.0288,0.0287,0,-0.0577,-0.0582,-0.0623,-0.0633,-0.0638,-0.0659,-0.0652,-0.0652,-0.0596,-0.0563,-0.0543,-0.0411,-0.0258,-0.0102,0.0084,0.0183,0.0334,0.0392,0.0345,0.0371,0.0417,0.041,0.0514,0.0516,0.0517,0.0519,0.052,0,-0.0607,-0.0634,-0.0671,-0.0699,-0.0708,-0.073,-0.0742,-0.0701,-0.0692,-0.0592,-0.0576,-0.0425,-0.0299,-0.0014,0.0183,0.0398,0.0392,0.0494,0.0476,0.0421,0.0442,0.0432,0.0423,0.0483,0.0483,0.0484,0.0485,0,-0.0661,-0.0672,-0.0705,-0.0767,-0.0795,-0.0823,-0.0829,-0.0835,-0.0772,-0.0713,-0.0602,-0.049,-0.0215,0.0024,0.0294,0.0414,0.0456,0.0514,0.0484,0.0424,0.0399,0.0417,0.0407,0.049,0.049,0.0489,0.0489,0.0489,-0.0694,-0.0732,-0.0776,-0.0829,-0.0866,-0.0898,-0.091,-0.0888,-0.085,-0.0738,-0.0629,-0.0426,-0.0208,0.0188,0.0371,0.0538,0.0537,0.0579,0.0574,0.0569,0.0542,0.0521,0.0631,0.0631,0.0631,0.0631,0.0631,0,-0.0732,-0.0773,-0.0834,-0.0893,-0.0937,-0.0939,-0.0952,-0.0927,-0.0865,-0.0728,-0.0583,-0.0323,-0.0042,0.0182,0.0456,0.0615,0.0591,0.0633,0.0569,0.0564,0.0559,0.0528,0.0615,0.0615,0.0616,0.0616,0,0,-0.0753,-0.0816,-0.0848,-0.0931,-0.097,-0.0996,-0.0995,-0.0928,-0.0823,-0.068,-0.0516,-0.0296,-0.002,0.0166,0.0361,0.0499,0.0487,0.0508,0.0507,0.0403,0.0396,0.0517,0.0463,0,0,0,0,0]}],[{"header":{"parameterUnit":"m.s-1","parameterCategory":2,"la1":30.2991,"la2":30.254,"lo1":-89.0895,"lo2":-89.0444,"dy":0.0017,"dx":0.0017,"nx":28,"ny":28,"refTime":"2025-08-21T03:00:00:Z","depth":"4","parameterNumber":2,"parameterNumberName":"U-component_of_CURRENTS"},"data":[0,0,0,0,0,0,0,0,0,0,0,0,0,0,0,0,0,0,0,0,0,0,0,0,0,0,0,0,0,0,0,0,0,0,0,0,0,0,0,0,0,0,0,0,0,0,0,0,0,0,0,0,0,0,0,0,0,0,-0.1456,-0.1457,0,-0.1532,-0.1532,-0.1533,-0.1576,-0.1577,-0.1577,-0.1577,-0.162,-0.1621,-0.1622,0,0,0,0,0,0,0,0,0,0,0,0,0,-0.1357,-0.1359,-0.1456,-0.1457,-0.1458,-0.1531,-0.1532,-0.1533,-0.1576,-0.1577,-0.1577,-0.1577,-0.1619,-0.1621,-0.1622,0,0,0,0,0,0,0,0,0,0,0,0,0,-0.1412,-0.1359,-0.1455,-0.1489,-0.1493,-0.1531,-0.1532,-0.1534,-0.1576,-0.1577,-0.1577,-0.1577,-0.1619,-0.162,-0.1622,-0.1623,0,0,-0.1626,-0.1627,0,0,0,0,0,0,0,0,-0.1409,-0.1416,-0.1483,-0.1487,-0.1491,-0.1546,-0.1514,-0.1562,-0.1576,-0.1543,-0.1577,-0.1578,-0.1592,-0.1596,-0.1608,-0.1625,-0.1627,-0.1626,-0.1627,-0.1627,-0.1628,0,0,0,0,0,0,0,-0.1405,-0.1413,-0.1485,-0.1484,-0.1489,-0.1503,-0.1511,-0.1523,-0.1563,-0.1546,-0.155,-0.156,-0.1594,-0.1607,-0.161,-0.1627,-0.1626,-0.1627,-0.1628,-0.1629,-0.1714,-0.1716,0,0,0,0,0,0,-0.1397,-0.1409,-0.1482,-0.1487,-0.1451,-0.1505,-0.1514,-0.1527,-0.1564,-0.1571,-0.1559,-0.1562,-0.1605,-0.1608,-0.1611,-0.1674,-0.1627,-0.1629,-0.163,-0.1713,-0.1715,-0.1716,0,0,0,0,0,0,-0.1395,-0.1403,-0.1479,-0.145,-0.1461,-0.1506,-0.1521,-0.1528,-0.1567,-0.1575,-0.1581,-0.1593,-0.1605,-0.1609,-0.1649,-0.1673,-0.1629,-0.1631,-0.1711,-0.1714,-0.1716,-0.176,0,0,0,0,0,0,-0.1392,-0.1402,-0.1421,-0.145,-0.1463,-0.1517,-0.1521,-0.153,-0.1571,-0.1575,-0.1605,-0.1608,-0.1606,-0.1647,-0.165,-0.1674,-0.1632,-0.1709,-0.1712,-0.1715,-0.1757,-0.1764,-0.177,0,0,0,0,0,-0.1388,-0.1409,-0.1421,-0.1431,-0.1483,-0.1518,-0.1527,-0.1558,-0.1573,-0.1594,-0.1619,-0.1608,-0.1666,-0.1649,-0.1653,-0.1678,-0.1708,-0.1711,-0.1715,-0.1754,-0.1762,-0.1769,0,0,0,0,0,0,-0.1379,-0.1417,-0.143,-0.1463,-0.1496,-0.1527,-0.1553,-0.1574,-0.1611,-0.1622,-0.1628,-0.1633,-0.1676,-0.1674,-0.1655,-0.1712,-0.1685,-0.1689,-0.1714,-0.1722,-0.1728,-0.1719,-0.1633,0,0,0,0,0,-0.1385,-0.1411,-0.1445,-0.1474,-0.1492,-0.1528,-0.1551,-0.1574,-0.1605,-0.1624,-0.1645,-0.1668,-0.1689,-0.1704,-0.172,-0.1751,-0.1734,-0.177,-0.1777,-0.1782,-0.1778,-0.1777,-0.1783,-0.1727,-0.1727,-0.1727,0,0,-0.1389,-0.1414,-0.143,-0.1474,-0.1503,-0.1536,-0.1544,-0.1587,-0.1621,-0.162,-0.1678,-0.1693,-0.1703,-0.1741,-0.1759,-0.1744,-0.1791,-0.1786,-0.1791,-0.1784,-0.1781,-0.1786,-0.1791,-0.1729,-0.1729,-0.1729,0,0,-0.1404,-0.1435,-0.146,-0.149,-0.1537,-0.1559,-0.1577,-0.1624,-0.1653,-0.1704,-0.1713,-0.1745,-0.1782,-0.1792,-0.18,-0.1852,-0.1825,-0.1862,-0.1885,-0.1885,-0.1889,-0.1892,-0.1879,-0.1881,-0.1863,-0.1864,-0.1864,0,-0.141,-0.1445,-0.1473,-0.1506,-0.1536,-0.1572,-0.1608,-0.1642,-0.1698,-0.172,-0.1729,-0.1791,-0.1803,-0.1837,-0.1858,-0.1865,-0.1855,-0.1854,-0.1892,-0.1894,-0.1897,-0.1882,-0.1884,-0.1866,-0.1866,-0.1866,-0.1865,0,-0.1435,-0.1476,-0.1495,-0.1546,-0.1581,-0.162,-0.1664,-0.1707,-0.1745,-0.1772,-0.1827,-0.1847,-0.1877,-0.1892,-0.1893,-0.1923,-0.1907,-0.1899,-0.1867,-0.1905,-0.1888,-0.1888,-0.187,-0.1869,-0.1868,-0.1868,0,0,-0.1414,-0.1497,-0.1506,-0.1539,-0.1608,-0.1636,-0.1695,-0.1749,-0.1785,-0.1837,-0.1876,-0.1921,-0.193,-0.1939,-0.1946,-0.1951,-0.1966,-0.1937,-0.1936,-0.1915,-0.1957,-0.1828,-0.1816,-0.1965,-0.1965,-0.1965,-0.1938,0,-0.1427,-0.1491,-0.1531,-0.1597,-0.1632,-0.1686,-0.1734,-0.1788,-0.1833,-0.1879,-0.1905,-0.1945,-0.1948,-0.1966,-0.1974,-0.1971,-0.1969,-0.1973,-0.1931,-0.193,-0.1803,-0.1813,-0.1967,-0.1938,-0.1938,-0.1938,-0.1938,0,-0.1431,-0.1476,-0.1542,-0.1623,-0.1644,-0.1691,-0.1767,-0.1815,-0.188,-0.1913,-0.1952,-0.1972,-0.2,-0.1992,-0.1996,-0.1999,-0.1982,-0.1972,-0.197,-0.1831,-0.1801,-0.1893,-0.1938,-0.1938,-0.1938,-0.1938,-0.1938,0,-0.1389,-0.148,-0.1533,-0.1563,-0.1659,-0.1702,-0.1754,-0.1827,-0.1864,-0.1932,-0.1958,-0.1995,-0.2012,-0.2007,-0.1991,-0.1999,-0.1976,-0.198,-0.1844,-0.1835,-0.194,-0.1937,-0.1969,-0.1969,-0.1969,-0.1969,-0.1969,0,-0.1371,-0.1417,-0.1524,-0.1553,-0.1613,-0.1688,-0.1751,-0.1806,-0.1876,-0.1905,-0.1968,-0.198,-0.2017,-0.2009,-0.1993,-0.1907,-0.1974,-0.1838,-0.1815,-0.1961,-0.196,-0.194,-0.1937,-0.1968,-0.1968,-0.1968,-0.1969,0,-0.1311,-0.1386,-0.145,-0.156,-0.1596,-0.1638,-0.1741,-0.1774,-0.1856,-0.1892,-0.1913,-0.1972,-0.1955,-0.1963,-0.1947,-0.1886,-0.1834,-0.1786,-0.1932,-0.192,-0.1696,-0.1697,-0.1632,-0.1627,-0.1623,-0.1619,-0.1616,0,-0.1282,-0.1313,-0.1435,-0.1469,-0.1523,-0.1599,-0.1642,-0.1746,-0.1774,-0.1864,-0.186,-0.1886,-0.1904,-0.1766,-0.1802,-0.1742,-0.1723,-0.1686,-0.1698,-0.1675,-0.166,-0.1667,-0.1673,-0.161,-0.1609,-0.1608,-0.1607,0,-0.1217,-0.1275,-0.1325,-0.1393,-0.1453,-0.1506,-0.1576,-0.1584,-0.1685,-0.178,-0.1746,-0.1725,-0.1697,-0.1671,-0.1626,-0.1593,-0.1708,-0.1643,-0.1652,-0.1663,-0.1648,-0.1639,-0.1649,-0.1592,-0.1594,-0.1596,-0.1597,0,-0.1164,-0.118,-0.125,-0.1294,-0.1362,-0.1378,-0.1437,-0.146,-0.1499,-0.1602,-0.1586,-0.1615,-0.1674,-0.1592,-0.1559,-0.1504,-0.1488,-0.1443,-0.1462,-0.1479,-0.144,-0.14,-0.1236,0,0,0,0,0,-0.1101,-0.1103,-0.114,-0.1183,-0.1243,-0.1277,-0.137,-0.1431,-0.1533,-0.1462,-0.1518,-0.1484,-0.143,-0.1453,-0.1362,-0.1495,-0.1498,-0.1384,-0.1458,-0.1513,-0.1529,-0.1499,0,0,0,0,0,0,-0.1059,-0.1091,-0.1099,-0.107,-0.1073,-0.1125,-0.1175,-0.1253,-0.1224,-0.133,-0.1303,-0.1386,-0.1351,-0.1443,-0.1325,-0.1331,-0.1345,-0.1415,-0.1411,-0.1503,-0.1518,-0.1532,-0.1506,0,0,0,0,0]},{"header":{"parameterUnit":"m.s-1","parameterCategory":2,"la1":30.2991,"la2":30.254,"lo1":-89.0895,"lo2":-89.0444,"dy":0.0017,"dx":0.0017,"nx":28,"ny":28,"refTime":"2025-08-21T03:00:00:Z","depth":"4","parameterNumber":3,"parameterNumberName":"V-component_of_CURRENTS"},"data":[0,0,0,0,0,0,0,0,0,0,0,0,0,0,0,0,0,0,0,0,0,0,0,0,0,0,0,0,0,0,0,0,0,0,0,0,0,0,0,0,0,0,0,0,0,0,0,0,0,0,0,0,0,0,0,0,0,0,-0.0124,-0.0124,0,-0.0077,-0.0077,-0.0076,-0.0035,-0.0034,-0.0034,-0.0033,0.0024,0.0026,0.0027,0,0,0,0,0,0,0,0,0,0,0,0,0,-0.0142,-0.0142,-0.0124,-0.0124,-0.0123,-0.0078,-0.0077,-0.0076,-0.0035,-0.0034,-0.0034,-0.0033,0.0024,0.0025,0.0027,0,0,0,0,0,0,0,0,0,0,0,0,0,-0.0118,-0.0142,-0.0124,-0.0098,-0.0095,-0.0078,-0.0077,-0.0076,-0.0035,-0.0034,-0.0034,-0.0033,0.0024,0.0025,0.0027,0.0025,0,0,0.0032,0.0033,0,0,0,0,0,0,0,0,-0.0119,-0.0117,-0.0102,-0.0099,-0.0096,-0.0062,-0.0062,-0.0042,-0.0035,-0.0057,-0.0033,-0.0033,-0.0004,-0.0,0.0008,0.0028,0.003,0.0032,0.0033,0.0034,0.0035,0,0,0,0,0,0,0,-0.0121,-0.0119,-0.0105,-0.0102,-0.0098,-0.0076,-0.0072,-0.0058,-0.0034,-0.0055,-0.0052,-0.0048,-0.0002,0.0006,0.001,0.0031,0.0032,0.0034,0.0035,0.0036,0.0077,0.0077,0,0,0,0,0,0,-0.0131,-0.0121,-0.0106,-0.0104,-0.0107,-0.0076,-0.0072,-0.0073,-0.0034,-0.0028,-0.0049,-0.0046,0.0003,0.0008,0.0012,0.0025,0.0034,0.0036,0.0037,0.0077,0.0077,0.0077,0,0,0,0,0,0,-0.0132,-0.0131,-0.0108,-0.0111,-0.0107,-0.0077,-0.0078,-0.0072,-0.0062,-0.003,-0.0023,-0.0044,0.0004,0.0009,0.0029,0.0028,0.0037,0.0038,0.0077,0.0077,0.0077,0.0044,0,0,0,0,0,0,-0.0133,-0.0131,-0.0137,-0.0112,-0.0107,-0.0102,-0.0079,-0.0072,-0.0061,-0.0057,-0.0024,-0.0018,0.0005,0.0026,0.0031,0.003,0.0039,0.0077,0.0077,0.0077,0.0045,0.0043,0.0041,0,0,0,0,0,-0.0133,-0.0145,-0.0137,-0.0135,-0.0116,-0.0103,-0.0098,-0.0074,-0.0061,-0.0061,-0.0033,-0.0019,0.0031,0.0028,0.0033,0.0033,0.0077,0.0077,0.0077,0.0046,0.0043,0.0041,0,0,0,0,0,0,-0.0155,-0.0141,-0.0132,-0.0138,-0.0124,-0.0096,-0.0095,-0.0078,-0.0056,-0.0052,-0.0019,-0.0011,0.0005,0.0023,0.0019,0.0046,0.0056,0.0058,0.0031,0.0029,0.0027,0.0017,0.0041,0,0,0,0,0,-0.0164,-0.0168,-0.0148,-0.0154,-0.0149,-0.0123,-0.0115,-0.0099,-0.0077,-0.0066,-0.0042,-0.0015,0.0009,0.0022,0.0042,0.0054,0.0081,0.0058,0.0056,0.0054,0.0051,0.0097,0.0099,0.0078,0.0078,0.0078,0,0,-0.0174,-0.0167,-0.0169,-0.0159,-0.0145,-0.0143,-0.0116,-0.0109,-0.0103,-0.0065,-0.0051,-0.0024,0.001,0.0027,0.0036,0.0043,0.0075,0.0055,0.0053,0.005,0.0098,0.01,0.0102,0.0078,0.0078,0.0078,0,0,-0.0198,-0.0191,-0.0202,-0.0193,-0.0178,-0.0162,-0.0162,-0.0137,-0.0122,-0.0107,-0.0074,-0.0045,-0.0018,0.0014,0.0032,0.0031,0.0061,0.0034,0.0019,0.0063,0.0066,0.0068,0.0103,0.0109,0.0035,0.0035,0.0035,0,-0.0211,-0.0221,-0.0203,-0.0208,-0.0204,-0.0173,-0.018,-0.0162,-0.0133,-0.0119,-0.0109,-0.005,-0.0022,0.0012,0.0013,0.0026,0.0052,0.0023,0.0061,0.0064,0.0066,0.0103,0.0109,0.0034,0.0034,0.0034,0.0034,0,-0.0238,-0.0246,-0.0252,-0.0249,-0.0242,-0.0244,-0.0217,-0.0205,-0.0184,-0.0159,-0.0125,-0.0081,-0.0043,-0.003,-0.001,0.0024,0.0036,0.0051,0.0065,0.0067,0.0105,0.0112,0.0031,0.0032,0.0032,0.0033,0,0,-0.0268,-0.0272,-0.0274,-0.0281,-0.0264,-0.0262,-0.0251,-0.023,-0.0219,-0.0183,-0.0161,-0.0113,-0.0083,-0.006,-0.0024,0.0014,0.0058,0.0035,0.0038,0.0067,0.0151,0.0133,0.014,0.0079,0.008,0.0081,0.0168,0,-0.0295,-0.0321,-0.031,-0.0329,-0.0339,-0.0308,-0.0302,-0.0276,-0.0244,-0.0215,-0.0157,-0.0126,-0.0095,-0.0077,-0.0032,0.0034,0.0076,0.0032,0.0148,0.0151,0.0133,0.0148,0.0085,0.0174,0.0176,0.0177,0.0178,0,-0.0323,-0.0337,-0.0366,-0.0371,-0.0371,-0.0377,-0.0356,-0.0345,-0.0292,-0.0265,-0.0215,-0.0168,-0.0104,-0.0081,0.0037,0.0007,0.0072,0.0125,0.0131,0.013,0.0148,0.0174,0.0192,0.0191,0.019,0.0189,0.0188,0,-0.0353,-0.0373,-0.04,-0.0402,-0.0402,-0.0407,-0.0402,-0.0363,-0.0352,-0.0295,-0.0276,-0.019,-0.0149,-0.0055,0.0053,0.0048,0.0182,0.0194,0.0243,0.0243,0.0247,0.0244,0.0279,0.0279,0.0279,0.0279,0.0278,0,-0.0382,-0.0404,-0.0421,-0.0436,-0.0466,-0.0447,-0.046,-0.0437,-0.0401,-0.0386,-0.0307,-0.027,-0.0142,-0.0049,0.0049,0.0166,0.0185,0.0242,0.0266,0.023,0.0224,0.0252,0.0248,0.0282,0.0281,0.0281,0.028,0,-0.0409,-0.042,-0.0456,-0.0475,-0.0484,-0.0505,-0.0513,-0.0514,-0.0473,-0.0449,-0.0433,-0.0326,-0.0204,-0.0072,0.0088,0.0154,0.0273,0.0311,0.0259,0.0278,0.0304,0.0297,0.0374,0.0374,0.0374,0.0374,0.0374,0,-0.0424,-0.0446,-0.0494,-0.0524,-0.0538,-0.0566,-0.0582,-0.0557,-0.055,-0.0478,-0.0465,-0.0348,-0.0264,-0.0045,0.0085,0.0271,0.0294,0.0347,0.0328,0.0299,0.0315,0.0308,0.0301,0.0374,0.0374,0.0374,0.0374,0,-0.0453,-0.0474,-0.0505,-0.057,-0.0606,-0.0637,-0.0653,-0.0654,-0.061,-0.0577,-0.0474,-0.0352,-0.0215,-0.0047,0.0094,0.0227,0.0307,0.0349,0.035,0.0332,0.0301,0.0315,0.0308,0.0375,0.0375,0.0375,0.0375,0,-0.0473,-0.0506,-0.0554,-0.0606,-0.0658,-0.0689,-0.0694,-0.0667,-0.0647,-0.0557,-0.0524,-0.036,-0.026,-0.007,0.0063,0.0187,0.0216,0.0245,0.0252,0.0253,0.0186,0.0126,0.0169,0,0,0,0,0,-0.0489,-0.0528,-0.0585,-0.0642,-0.0694,-0.0718,-0.073,-0.072,-0.0679,-0.0611,-0.0561,-0.0424,-0.021,-0.0112,0.001,0.0047,0.0218,0.019,0.025,0.0377,0.0377,0.0316,0,0,0,0,0,0,-0.0501,-0.0558,-0.0587,-0.0657,-0.07,-0.0747,-0.0755,-0.0728,-0.0675,-0.0615,-0.0495,-0.0412,-0.0202,-0.0279,0.0008,0.0045,0.0095,0.0299,0.0301,0.0378,0.0377,0.0377,0.0314,0,0,0,0,0]}]]